Lima, OH

2:44 PM EDT on September 26, 2017 (GMT -0400)
Lima Allen County

Weather History for KAOH - October, 2012

Change the Weather History Date:

Wednesday, October 10, 2012

  Actual Average (KFDY) Record (KFDY)
Temperature  
Mean Temperature 44 °F -  
Max Temperature 55 °F 62 °F 88 °F (2010)
Min Temperature 36 °F 42 °F 28 °F (1964)
Degree Days  
Heating Degree Days 20    
Moisture  
Dew Point 36 °F    
Average Humidity 65    
Maximum Humidity 87    
Minimum Humidity 46    
Precipitation  
Precipitation 0.01 in - - ()
Sea Level Pressure  
Sea Level Pressure 30.01 in    
Wind  
Wind Speed 13 mph (West)    
Max Wind Speed 23 mph    
Max Gust Speed 34 mph    
Visibility 9 miles    
Events Rain    
Averages and records for this station are not official NWS values.
T = Trace of Precipitation, MM = Missing Value Source: NWS Daily Summary

Daily Weather History Graph

Daily Weather History Graph

Search for Another Location

Airport or City:

Trip Planner

Search our weather history database for the weather conditions in past years. The results will help you decide how hot, cold, wet, or windy it might be!

Date:

Astronomy

Oct. 10, 2012 Rise Set
Actual Time 7:42 AM EDT 7:02 PM EDT
Civil Twilight 7:15 AM EDT 7:30 PM EDT
Nautical Twilight 6:43 AM EDT 8:01 PM EDT
Astronomical Twilight 6:11 AM EDT 8:33 PM EDT
Moon 2:16 AM EDT (10/10) 4:06 PM EDT (10/10)
Length of Visible Light 12h 15m
Length of Day
11h 20m
Waning Crescent, 27% of the Moon is Illuminated
Oct 10
Waning Crescent
Oct 15
New
Oct 21
First Quarter
Oct 29
Full
Nov 6
Last Quarter

Hourly Weather History & Observations

Time (EDT) Temp. Windchill Dew Point Humidity Pressure Visibility Wind Dir Wind Speed Gust Speed Precip Events Conditions
12:53 AM 48.9 °F - 37.9 °F 66% 29.91 in 10.0 mi South 11.5 mph - N/A   Clear
1:53 AM 48.9 °F - 37.9 °F 66% 29.89 in 10.0 mi South 10.4 mph - N/A   Scattered Clouds
2:53 AM 50.0 °F - 39.0 °F 66% 29.88 in 10.0 mi SSW 10.4 mph - N/A   Mostly Cloudy
3:53 AM 51.1 °F - 39.0 °F 63% 29.86 in 10.0 mi SSW 10.4 mph - N/A   Mostly Cloudy
4:53 AM 50.0 °F - 39.9 °F 68% 29.86 in 10.0 mi SW 10.4 mph - N/A   Overcast
5:36 AM 50.0 °F - 42.8 °F 76% 29.87 in 10.0 mi WSW 10.4 mph - 0.00 in Rain Light Rain
5:53 AM 48.9 °F - 42.1 °F 77% 29.88 in 10.0 mi NW 15.0 mph 21.9 mph 0.00 in   Overcast
6:04 AM 48.2 °F - 42.8 °F 82% 29.89 in 10.0 mi WNW 17.3 mph 24.2 mph 0.00 in Rain Light Rain
6:53 AM 46.0 °F 43.1 °F 42.1 °F 86% 29.92 in 10.0 mi WNW 5.8 mph - 0.01 in   Overcast
7:12 AM 46.4 °F 41.5 °F 42.8 °F 87% 29.92 in 10.0 mi WNW 10.4 mph - 0.00 in   Overcast
7:53 AM 46.0 °F 41.0 °F 42.1 °F 86% 29.95 in 10.0 mi WNW 10.4 mph - 0.00 in   Overcast
8:04 AM 46.4 °F 41.9 °F 42.8 °F 87% 29.94 in 10.0 mi West 9.2 mph - N/A   Overcast
8:17 AM 46.4 °F 41.5 °F 42.8 °F 87% 29.95 in 10.0 mi West 10.4 mph - N/A   Overcast
8:42 AM 46.4 °F 41.1 °F 39.2 °F 76% 29.96 in 10.0 mi WNW 11.5 mph 20.7 mph N/A   Mostly Cloudy
8:53 AM 46.0 °F 39.6 °F 39.0 °F 76% 29.98 in 10.0 mi West 15.0 mph 20.7 mph N/A   Scattered Clouds
9:22 AM 46.4 °F 41.1 °F 39.2 °F 76% 29.98 in 2.0 mi West 11.5 mph 20.7 mph N/A   Haze
9:31 AM 46.4 °F 41.1 °F 39.2 °F 76% 29.98 in 10.0 mi WNW 11.5 mph - N/A   Mostly Cloudy
9:53 AM 46.0 °F 39.0 °F 37.9 °F 73% 30.00 in 10.0 mi West 17.3 mph - N/A   Mostly Cloudy
10:00 AM 46.4 °F 40.7 °F 37.4 °F 71% 29.99 in 1.5 mi West 12.7 mph 21.9 mph N/A   Haze
10:15 AM 46.4 °F 39.8 °F 37.4 °F 71% 30.00 in 10.0 mi West 16.1 mph 24.2 mph N/A   Mostly Cloudy
10:53 AM 48.0 °F - 37.9 °F 68% 30.02 in 10.0 mi West 17.3 mph 23.0 mph N/A   Mostly Cloudy
11:11 AM 48.2 °F - 37.4 °F 66% 30.02 in 1.8 mi West 16.1 mph 23.0 mph N/A   Haze
11:25 AM 50.0 °F - 37.4 °F 62% 30.02 in 10.0 mi West 13.8 mph 23.0 mph N/A   Scattered Clouds
11:53 AM 52.0 °F - 36.0 °F 54% 30.03 in 10.0 mi West 13.8 mph 23.0 mph N/A   Scattered Clouds
12:53 PM 52.0 °F - 35.1 °F 53% 30.04 in 10.0 mi West 16.1 mph 23.0 mph N/A   Overcast
1:53 PM 53.1 °F - 33.1 °F 47% 30.04 in 10.0 mi West 23.0 mph 33.4 mph N/A   Overcast
2:09 PM 50.0 °F - 32.0 °F 50% 30.03 in 1.5 mi West 20.7 mph 27.6 mph N/A   Haze
2:24 PM 51.8 °F - 33.8 °F 50% 30.03 in 10.0 mi West 20.7 mph 27.6 mph N/A   Mostly Cloudy
2:31 PM 51.8 °F - 33.8 °F 50% 30.03 in 1.5 mi West 23.0 mph 29.9 mph N/A   Haze
2:46 PM 51.8 °F - 33.8 °F 50% 30.04 in 10.0 mi West 23.0 mph 34.5 mph N/A   Mostly Cloudy
2:49 PM 51.8 °F - 33.8 °F 50% 30.04 in 1.8 mi West 21.9 mph 29.9 mph N/A   Haze
2:53 PM 50.0 °F - 33.1 °F 52% 30.05 in 1.5 mi West 19.6 mph 29.9 mph N/A   Haze
3:04 PM 48.2 °F - 32.0 °F 54% 30.05 in 10.0 mi West 21.9 mph 32.2 mph N/A   Mostly Cloudy
3:53 PM 48.9 °F - 30.9 °F 50% 30.08 in 10.0 mi West 20.7 mph 27.6 mph N/A   Overcast
4:53 PM 48.9 °F - 28.9 °F 46% 30.09 in 10.0 mi West 20.7 mph 29.9 mph N/A   Mostly Cloudy
5:53 PM 48.0 °F - 28.0 °F 46% 30.11 in 10.0 mi West 15.0 mph 26.5 mph N/A   Partly Cloudy
6:53 PM 46.0 °F 39.6 °F 27.0 °F 47% 30.13 in 10.0 mi WNW 15.0 mph 20.7 mph N/A   Clear
7:53 PM 43.0 °F 38.8 °F 28.0 °F 56% 30.17 in 10.0 mi West 6.9 mph - N/A   Clear
8:53 PM 41.0 °F - 28.0 °F 60% 30.19 in 10.0 mi Calm Calm - N/A   Clear
9:53 PM 39.9 °F 37.8 °F 28.0 °F 63% 30.21 in 10.0 mi SW 3.5 mph - N/A   Clear
10:53 PM 36.0 °F 29.6 °F 28.0 °F 73% 30.23 in 10.0 mi South 8.1 mph - N/A   Clear
11:53 PM 36.0 °F 32.1 °F 28.0 °F 73% 30.23 in 10.0 mi SSW 4.6 mph - N/A   Clear